| time (UTC) | temp C | wind direction | speed KPH | gust KPH | rain 1hr cm | rain 24hr cm | rain mn cm | humidity % | barometer mb |
| 20260906174549 | 22 | 0.0 | 0.0 | 0.00 | 0.00 | 0.00 | 54 | 1023.4 | |
| 20260906174025 | 23 | 0.0 | 0.0 | 0.00 | 0.00 | 0.00 | 53 | 1023.4 | |
| 20260906173549 | 23 | 0.0 | 0.0 | 0.00 | 0.00 | 0.00 | 50 | 1023.4 | |
| 20260906173026 | 23 | 0.0 | 0.0 | 0.00 | 0.00 | 0.00 | 47 | 1023.4 | |
| 20260906172549 | 24 | 0.0 | 0.0 | 0.00 | 0.00 | 0.00 | 46 | ||
| 20260906172026 | 24 | 0.0 | 0.0 | 0.00 | 0.00 | 0.00 | 45 | ||
| 20260906171520 | 25 | 0.0 | 0.0 | 0.00 | 0.00 | 0.00 | 44 | ||
| 20260906171026 | 25 | 13 | 0.0 | 0.0 | 0.00 | 0.00 | 0.00 | 43 | |
| 20260906170520 | 25 | 15 | 0.0 | 1.6 | 0.00 | 0.00 | 0.00 | 42 | |
| 20260906170027 | 25 | 20 | 0.0 | 3.2 | 0.00 | 0.00 | 0.00 | 42 | |
| 20260906165520 | 25 | 12 | 0.0 | 3.2 | 0.00 | 0.00 | 0.00 | 41 | |
| 20260906165027 | 25 | 22 | 1.6 | 3.2 | 0.00 | 0.00 | 0.00 | 41 | |
| 20260906164521 | 25 | 26 | 0.0 | 3.2 | 0.00 | 0.00 | 0.00 | 41 | |
| 20260906164015 | 26 | 16 | 0.0 | 3.2 | 0.00 | 0.00 | 0.00 | 41 | |
| 20260906163521 | 26 | 34 | 1.6 | 4.8 | 0.00 | 0.00 | 0.00 | 41 | |
| 20260906163015 | 26 | 7 | 0.0 | 3.2 | 0.00 | 0.00 | 0.00 | 40 | |
| 20260906162522 | 26 | 44 | 1.6 | 9.7 | 0.00 | 0.00 | 0.00 | 39 | |
| 20260906162016 | 27 | 23 | 1.6 | 4.8 | 0.00 | 0.00 | 0.00 | 38 | |
| 20260906161522 | 27 | 17 | 1.6 | 8.0 | 0.00 | 0.00 | 0.00 | 37 | |
| 20260906161017 | 27 | 23 | 1.6 | 3.2 | 0.00 | 0.00 | 0.00 | 37 | |
| 20260906160523 | 27 | 14 | 1.6 | 3.2 | 0.00 | 0.00 | 0.00 | 37 | |
| 20260906160017 | 27 | 21 | 1.6 | 9.7 | 0.00 | 0.00 | 0.00 | 37 | |
| 20260906155524 | 27 | 13 | 0.0 | 4.8 | 0.00 | 0.00 | 0.00 | 37 | |
| 20260906155017 | 27 | 21 | 1.6 | 8.0 | 0.00 | 0.00 | 0.00 | 38 | |
| 20260906154524 | 27 | 31 | 1.6 | 8.0 | 0.00 | 0.00 | 0.00 | 38 | |
| 20260906154018 | 27 | 20 | 1.6 | 3.2 | 0.00 | 0.00 | 0.00 | 38 | |
| 20260906153525 | 27 | 34 | 1.6 | 8.0 | 0.00 | 0.00 | 0.00 | 38 | |
| 20260906153019 | 27 | 23 | 1.6 | 8.0 | 0.00 | 0.00 | 0.00 | 39 | |
| 20260906152538 | 27 | 3 | 0.0 | 3.2 | 0.00 | 0.00 | 0.00 | 38 | |
| 20260906152103 | 27 | 37 | 3.2 | 9.7 | 0.00 | 0.00 | 0.00 | 39 | |
| 20260906151527 | 27 | 30 | 1.6 | 8.0 | 0.00 | 0.00 | 0.00 | 40 | |
| 20260906151021 | 27 | 24 | 1.6 | 8.0 | 0.00 | 0.00 | 0.00 | 40 | |
| 20260906150618 | 27 | 12 | 1.6 | 3.2 | 0.00 | 0.00 | 0.00 | 40 | |
| 20260906150051 | 27 | 29 | 1.6 | 4.8 | 0.00 | 0.00 | 0.00 | 39 | |
| 20260906145623 | 27 | 54 | 1.6 | 8.0 | 0.00 | 0.00 | 0.00 | 40 | |
| 20260906145021 | 27 | 24 | 1.6 | 9.7 | 0.00 | 0.00 | 0.00 | 40 | |
| 20260906144515 | 27 | 26 | 1.6 | 4.8 | 0.00 | 0.00 | 0.00 | 40 | |
| 20260906144022 | 28 | 24 | 1.6 | 6.4 | 0.00 | 0.00 | 0.00 | 40 | |
| 20260906143516 | 28 | 32 | 1.6 | 8.0 | 0.00 | 0.00 | 0.00 | 39 | |
| 20260906143022 | 27 | 15 | 0.0 | 8.0 | 0.00 | 0.00 | 0.00 | 39 | |
| 20260906142517 | 27 | 331 | 1.6 | 8.0 | 0.00 | 0.00 | 0.00 | 39 | |
| 20260906142023 | 27 | 14 | 1.6 | 3.2 | 0.00 | 0.00 | 0.00 | 38 | |
| 20260906141517 | 27 | 39 | 1.6 | 8.0 | 0.00 | 0.00 | 0.00 | 39 | |
| 20260906141023 | 27 | 12 | 1.6 | 8.0 | 0.00 | 0.00 | 0.00 | 39 | |
| 20260906140517 | 27 | 36 | 1.6 | 12.9 | 0.00 | 0.00 | 0.00 | 39 | |
| 20260906140024 | 27 | 10 | 1.6 | 4.8 | 0.00 | 0.00 | 0.00 | 39 | |
| 20260906135548 | 27 | 12 | 1.6 | 4.8 | 0.00 | 0.00 | 0.00 | 38 | |
| 20260906135108 | 27 | 355 | 1.6 | 3.2 | 0.00 | 0.00 | 0.00 | 39 | |
| 20260906134518 | 27 | 23 | 3.2 | 11.3 | 0.00 | 0.00 | 0.00 | 38 | |
| 20260906134201 | 27 | 350 | 0.0 | 3.2 | 0.00 | 0.00 | 0.00 | 40 | |
| 20260906133519 | 27 | 36 | 1.6 | 8.0 | 0.00 | 0.00 | 0.00 | 39 | |
| 20260906133025 | 27 | 18 | 1.6 | 4.8 | 0.00 | 0.00 | 0.00 | 38 | |
| 20260906132519 | 27 | 19 | 1.6 | 8.0 | 0.00 | 0.00 | 0.00 | 39 | |
| 20260906132026 | 26 | 7 | 1.6 | 3.2 | 0.00 | 0.00 | 0.00 | 40 | |
| 20260906131519 | 26 | 4 | 3.2 | 8.0 | 0.00 | 0.00 | 0.00 | 41 | |
| 20260906131026 | 26 | 46 | 3.2 | 11.3 | 0.00 | 0.00 | 0.00 | 41 | |
| 20260906130520 | 27 | 357 | 1.6 | 9.7 | 0.00 | 0.00 | 0.00 | 41 | |
| 20260906130057 | 27 | 9 | 3.2 | 8.0 | 0.00 | 0.00 | 0.00 | 40 | |
| 20260906125520 | 27 | 352 | 3.2 | 12.9 | 0.00 | 0.00 | 0.00 | 40 | |
| 20260906125027 | 26 | 23 | 1.6 | 8.0 | 0.00 | 0.00 | 0.00 | 42 | |
| 20260906124521 | 27 | 38 | 1.6 | 8.0 | 0.00 | 0.00 | 0.00 | 42 | |
| 20260906124015 | 27 | 20 | 1.6 | 8.0 | 0.00 | 0.00 | 0.00 | 42 | |
| 20260906123521 | 26 | 33 | 1.6 | 9.7 | 0.00 | 0.00 | 0.00 | 42 | |
| 20260906123016 | 26 | 4 | 1.6 | 8.0 | 0.00 | 0.00 | 0.00 | 42 | |
| 20260906122522 | 26 | 16 | 1.6 | 3.2 | 0.00 | 0.00 | 0.00 | 44 | |
| 20260906122016 | 25 | 28 | 1.6 | 9.7 | 0.00 | 0.00 | 0.00 | 45 | |
| 20260906121522 | 26 | 49 | 1.6 | 11.3 | 0.00 | 0.00 | 0.00 | 43 | |
| 20260906121016 | 26 | 309 | 3.2 | 9.7 | 0.00 | 0.00 | 0.00 | 44 | |
| 20260906120523 | 26 | 26 | 3.2 | 9.7 | 0.00 | 0.00 | 0.00 | 44 | |
| 20260906120017 | 26 | 7 | 1.6 | 4.8 | 0.00 | 0.00 | 0.00 | 45 | |
| 20260906115606 | 25 | 11 | 1.6 | 4.8 | 0.00 | 0.00 | 0.00 | 45 | |
| 20260906115030 | 26 | 46 | 3.2 | 9.7 | 0.00 | 0.00 | 0.00 | 44 | |
| 20260906114524 | 25 | 24 | 3.2 | 8.0 | 0.00 | 0.00 | 0.00 | 45 | |
| 20260906114018 | 25 | 25 | 1.6 | 4.8 | 0.00 | 0.00 | 0.00 | 46 | |
| 20260906113524 | 25 | 32 | 1.6 | 8.0 | 0.00 | 0.00 | 0.00 | 46 | |
| 20260906113018 | 25 | 27 | 3.2 | 16.1 | 0.00 | 0.00 | 0.00 | 45 | |
| 20260906112524 | 25 | 13 | 3.2 | 8.0 | 0.00 | 0.00 | 0.00 | 47 | |
| 20260906112048 | 25 | 306 | 3.2 | 9.7 | 0.00 | 0.00 | 0.00 | 46 | |
| 20260906111525 | 25 | 22 | 1.6 | 8.0 | 0.00 | 0.00 | 0.00 | 47 | |
| 20260906111119 | 25 | 35 | 1.6 | 8.0 | 0.00 | 0.00 | 0.00 | 46 | |
| 20260906110526 | 25 | 30 | 1.6 | 8.0 | 0.00 | 0.00 | 0.00 | 47 | |
| 20260906110050 | 24 | 17 | 1.6 | 8.0 | 0.00 | 0.00 | 0.00 | 48 | |
| 20260906105526 | 24 | 314 | 1.6 | 4.8 | 0.00 | 0.00 | 0.00 | 48 | |
| 20260906105020 | 23 | 18 | 1.6 | 8.0 | 0.00 | 0.00 | 0.00 | 49 | |
| 20260906104626 | 23 | 23 | 3.2 | 12.9 | 0.00 | 0.00 | 0.00 | 49 | |
| 20260906104018 | 23 | 38 | 3.2 | 8.0 | 0.00 | 0.00 | 0.00 | 50 | |
| 20260906103555 | 23 | 29 | 1.6 | 8.0 | 0.00 | 0.00 | 0.00 | 51 | |
| 20260906103019 | 23 | 30 | 3.2 | 6.4 | 0.00 | 0.00 | 0.00 | 51 | |
| 20260906102526 | 23 | 40 | 1.6 | 12.9 | 0.00 | 0.00 | 0.00 | 52 | |
| 20260906102049 | 23 | 24 | 1.6 | 8.0 | 0.00 | 0.00 | 0.00 | 52 | |
| 20260906101539 | 23 | 19 | 1.6 | 4.8 | 0.00 | 0.00 | 0.00 | 53 | |
| 20260906101102 | 23 | 16 | 1.6 | 8.0 | 0.00 | 0.00 | 0.00 | 54 | |
| 20260906100544 | 23 | 21 | 3.2 | 8.0 | 0.00 | 0.00 | 0.00 | 53 | |
| 20260906100120 | 23 | 23 | 1.6 | 3.2 | 0.00 | 0.00 | 0.00 | 55 | |
| 20260906095709 | 22 | 44 | 1.6 | 8.0 | 0.00 | 0.00 | 0.00 | 55 | |
| 20260906095020 | 22 | 26 | 3.2 | 8.0 | 0.00 | 0.00 | 0.00 | 56 | |
| 20260906094526 | 22 | 39 | 3.2 | 9.7 | 0.00 | 0.00 | 0.00 | 57 | |
| 20260906094021 | 22 | 40 | 3.2 | 8.0 | 0.00 | 0.00 | 0.00 | 57 | |
| 20260906093527 | 21 | 31 | 1.6 | 8.0 | 0.00 | 0.00 | 0.00 | 58 | |
| 20260906093021 | 21 | 25 | 1.6 | 3.2 | 0.00 | 0.00 | 0.00 | 58 | |
| 20260906092515 | 21 | 56 | 3.2 | 8.0 | 0.00 | 0.00 | 0.00 | 59 | |
| 20260906092021 | 21 | 51 | 3.2 | 12.9 | 0.00 | 0.00 | 0.00 | 59 | |
| 20260906091515 | 21 | 23 | 1.6 | 16.1 | 0.00 | 0.00 | 0.00 | 58 | |
| 20260906091021 | 21 | 1 | 3.2 | 8.0 | 0.00 | 0.00 | 0.00 | 59 | |
| 20260906090545 | 21 | 23 | 1.6 | 4.8 | 0.00 | 0.00 | 0.00 | 59 | |
| 20260906090021 | 21 | 41 | 3.2 | 8.0 | 0.00 | 0.00 | 0.00 | 60 | |
| 20260906085515 | 20 | 34 | 1.6 | 8.0 | 0.00 | 0.00 | 0.00 | 60 | |
| 20260906085022 | 20 | 22 | 1.6 | 8.0 | 0.00 | 0.00 | 0.00 | 61 | |
| 20260906084516 | 20 | 26 | 1.6 | 6.4 | 0.00 | 0.00 | 0.00 | 61 | |
| 20260906084052 | 20 | 34 | 1.6 | 8.0 | 0.00 | 0.00 | 0.00 | 61 | |
| 20260906083516 | 20 | 44 | 1.6 | 8.0 | 0.00 | 0.00 | 0.00 | 62 | |
| 20260906083036 | 20 | 16 | 3.2 | 8.0 | 0.00 | 0.00 | 0.00 | 61 | |
| 20260906082630 | 20 | 3 | 0.0 | 3.2 | 0.00 | 0.00 | 0.00 | 63 | |
| 20260906082024 | 20 | 40 | 1.6 | 9.7 | 0.00 | 0.00 | 0.00 | 61 | |
| 20260906081518 | 20 | 339 | 1.6 | 3.2 | 0.00 | 0.00 | 0.00 | 63 | |
| 20260906081024 | 20 | 351 | 1.6 | 3.2 | 0.00 | 0.00 | 0.00 | 63 | |
| 20260906080518 | 19 | 11 | 1.6 | 3.2 | 0.00 | 0.00 | 0.00 | 64 | |
| 20260906080024 | 19 | 38 | 1.6 | 4.8 | 0.00 | 0.00 | 0.00 | 65 | |
| 20260906075518 | 18 | 12 | 1.6 | 8.0 | 0.00 | 0.00 | 0.00 | 65 | |
| 20260906075025 | 18 | 3 | 1.6 | 8.0 | 0.00 | 0.00 | 0.00 | 65 | |
| 20260906074549 | 18 | 3 | 1.6 | 8.0 | 0.00 | 0.00 | 0.00 | 67 | |
| 20260906074025 | 18 | 6 | 1.6 | 8.0 | 0.00 | 0.00 | 0.00 | 67 | |
| 20260906073520 | 18 | 18 | 1.6 | 3.2 | 0.00 | 0.00 | 0.00 | 68 | |
| 20260906073126 | 17 | 25 | 1.6 | 6.4 | 0.00 | 0.00 | 0.00 | 69 | |
| 20260906072520 | 17 | 22 | 1.6 | 8.0 | 0.00 | 0.00 | 0.00 | 69 | |
| 20260906072026 | 17 | 14 | 1.6 | 3.2 | 0.00 | 0.00 | 0.00 | 71 | |
| 20260906071520 | 17 | 0 | 1.6 | 3.2 | 0.00 | 0.00 | 0.00 | 70 | |
| 20260906071027 | 17 | 5 | 1.6 | 3.2 | 0.00 | 0.00 | 0.00 | 72 | |
| 20260906070520 | 16 | 359 | 0.0 | 3.2 | 0.00 | 0.00 | 0.00 | 75 | |
| 20260906070027 | 16 | 326 | 0.0 | 0.0 | 0.00 | 0.00 | 0.00 | 77 | |
| 20260906065521 | 15 | 0.0 | 0.0 | 0.00 | 0.00 | 0.00 | 81 | ||
| 20260906065015 | 14 | 322 | 0.0 | 3.2 | 0.00 | 0.00 | 0.00 | 83 | |
| 20260906064521 | 13 | 323 | 0.0 | 1.6 | 0.00 | 0.00 | 0.00 | 86 | |
| 20260906064015 | 13 | 0.0 | 0.0 | 0.00 | 0.00 | 0.00 | 87 | ||
| 20260906063521 | 12 | 329 | 0.0 | 1.6 | 0.00 | 0.00 | 0.00 | 89 | |
| 20260906063015 | 12 | 0.0 | 0.0 | 0.00 | 0.00 | 0.00 | 90 | ||
| 20260906062521 | 12 | 332 | 0.0 | 1.6 | 0.00 | 0.00 | 0.00 | 90 | |
| 20260906062016 | 12 | 0.0 | 0.0 | 0.00 | 0.00 | 0.00 | 91 | ||
| 20260906061522 | 11 | 312 | 0.0 | 1.6 | 0.00 | 0.00 | 0.00 | 94 | |
| 20260906061016 | 11 | 0.0 | 0.0 | 0.00 | 0.00 | 0.00 | 96 | ||
| 20260906060815 | 10 | 0.0 | 0.0 | 0.00 | 0.00 | 0.00 | 97 | ||
| 20260906060016 | 10 | 0.0 | 0.0 | 0.00 | 0.00 | 0.00 | 99 | ||
| 20260906055909 | 9 | 0.0 | 0.0 | 0.00 | 0.00 | 0.00 | 99 | ||
| 20260906055017 | 8 | 0.0 | 0.0 | 0.00 | 0.00 | 0.00 | 99 | ||
| 20260906054523 | 8 | 0.0 | 0.0 | 0.00 | 0.00 | 0.00 | 99 | ||
| 20260906054017 | 8 | 0.0 | 0.0 | 0.00 | 0.00 | 0.00 | 99 | ||
| 20260906053523 | 8 | 0.0 | 0.0 | 0.00 | 0.00 | 0.00 | 99 | ||
| 20260906053017 | 8 | 0.0 | 0.0 | 0.00 | 0.00 | 0.00 | 99 | ||
| 20260906052523 | 8 | 0.0 | 0.0 | 0.00 | 0.00 | 0.00 | 99 | ||
| 20260906052017 | -17 | 0.0 | 0.0 | 0.00 | 0.00 | 0.00 | |||
| 20260906051524 | -17 | 0.0 | 0.0 | 0.00 | 0.00 | 0.00 | |||
| 20260906051047 | -17 | 0.0 | 0.0 | 0.00 | 0.00 | 0.00 | |||
| 20260906050524 | -17 | 0.0 | 0.0 | 0.00 | 0.00 | 0.00 | |||
| 20260906050018 | -17 | 0.0 | 0.0 | 0.00 | 0.00 | 0.00 | |||
| 20260906045524 | -17 | 0.0 | 0.0 | 0.00 | 0.00 | 0.00 | |||
| 20260906045048 | -17 | 0.0 | 0.0 | 0.00 | 0.00 | 0.00 | |||
| 20260906044524 | -17 | 0.0 | 0.0 | 0.00 | 0.00 | 0.00 | |||
| 20260906044049 | -17 | 0.0 | 0.0 | 0.00 | 0.00 | 0.00 | |||
| 20260906043525 | -17 | 0.0 | 0.0 | 0.00 | 0.00 | 0.00 | |||
| 20260906043019 | -17 | 0.0 | 0.0 | 0.00 | 0.00 | 0.00 | |||
| 20260906042526 | -17 | 0.0 | 0.0 | 0.00 | 0.00 | 0.00 | |||
| 20260906042020 | -17 | 0.0 | 0.0 | 0.00 | 0.00 | 0.00 | |||
| 20260906041526 | -17 | 0.0 | 0.0 | 0.00 | 0.00 | 0.00 | |||
| 20260906041021 | -17 | 0.0 | 0.0 | 0.00 | 0.00 | 0.00 | |||
| 20260906040527 | -17 | 0.0 | 0.0 | 0.00 | 0.00 | 0.00 | |||
| 20260906040021 | -17 | 0.0 | 0.0 | 0.00 | 0.00 | 0.00 | |||
| 20260906035545 | -17 | 0.0 | 0.0 | 0.00 | 0.00 | 0.00 | |||
| 20260906035021 | -17 | 0.0 | 0.0 | 0.00 | 0.00 | 0.00 | |||
| 20260906034515 | -17 | 0.0 | 0.0 | 0.00 | 0.00 | 0.00 | |||
| 20260906034051 | -17 | 0.0 | 0.0 | 0.00 | 0.00 | 0.00 | |||
| 20260906033515 | -17 | 0.0 | 0.0 | 0.00 | 0.00 | 0.00 | |||
| 20260906033022 | -17 | 0.0 | 0.0 | 0.00 | 0.00 | 0.00 | |||
| 20260906032516 | -17 | 0.0 | 0.0 | 0.00 | 0.00 | 0.00 | |||
| 20260906032022 | -17 | 0.0 | 0.0 | 0.00 | 0.00 | 0.00 | |||
| 20260906031516 | -17 | 0.0 | 0.0 | 0.00 | 0.00 | 0.00 | |||
| 20260906031022 | -17 | 0.0 | 0.0 | 0.00 | 0.00 | 0.00 | |||
| 20260906030546 | -17 | 0.0 | 0.0 | 0.00 | 0.00 | 0.00 | |||
| 20260906030022 | -17 | 0.0 | 0.0 | 0.00 | 0.00 | 0.00 | |||
| 20260906025516 | -17 | 0.0 | 0.0 | 0.00 | 0.00 | 0.00 | |||
| 20260906025023 | -17 | 0.0 | 0.0 | 0.00 | 0.00 | 0.00 | |||
| 20260906024517 | -17 | 0.0 | 0.0 | 0.00 | 0.00 | 0.00 | |||
| 20260906024023 | -17 | 0.0 | 0.0 | 0.00 | 0.00 | 0.00 | |||
| 20260906023517 | -17 | 0.0 | 0.0 | 0.00 | 0.00 | 0.00 | |||
| 20260906023037 | -17 | 0.0 | 0.0 | 0.00 | 0.00 | 0.00 | |||
| 20260906022531 | -17 | 0.0 | 0.0 | 0.00 | 0.00 | 0.00 | |||
| 20260906022025 | -17 | 0.0 | 0.0 | 0.00 | 0.00 | 0.00 | |||
| 20260906021519 | -17 | 0.0 | 0.0 | 0.00 | 0.00 | 0.00 | |||
| 20260906021024 | -17 | 0.0 | 0.0 | 0.00 | 0.00 | 0.00 | |||
| 20260906020518 | -17 | 0.0 | 0.0 | 0.00 | 0.00 | 0.00 | |||
| 20260906020024 | -17 | 0.0 | 0.0 | 0.00 | 0.00 | 0.00 | |||
| 20260906015519 | -17 | 0.0 | 0.0 | 0.00 | 0.00 | 0.00 | |||
| 20260906015025 | -17 | 0.0 | 0.0 | 0.00 | 0.00 | 0.00 | |||
| 20260906014519 | -17 | 0.0 | 0.0 | 0.00 | 0.00 | 0.00 | |||
| 20260906014025 | -17 | 0.0 | 0.0 | 0.00 | 0.00 | 0.00 | |||
| 20260906013519 | -17 | 0.0 | 0.0 | 0.00 | 0.00 | 0.00 | |||
| 20260906013026 | -17 | 0.0 | 0.0 | 0.00 | 0.00 | 0.00 | |||
| 20260906012520 | -17 | 0.0 | 0.0 | 0.00 | 0.00 | 0.00 | |||
| 20260906012026 | -17 | 0.0 | 0.0 | 0.00 | 0.00 | 0.00 | |||
| 20260906011520 | -17 | 0.0 | 0.0 | 0.00 | 0.00 | 0.00 | |||
| 20260906011027 | -17 | 0.0 | 0.0 | 0.00 | 0.00 | 0.00 | |||
| 20260906010521 | -17 | 0.0 | 0.0 | 0.00 | 0.00 | 0.00 | |||
| 20260906010015 | -17 | 0.0 | 0.0 | 0.00 | 0.00 | 0.00 | |||
| 20260906005521 | -17 | 0.0 | 0.0 | 0.00 | 0.00 | 0.00 | |||
| 20260906005045 | -17 | 0.0 | 0.0 | 0.00 | 0.00 | 0.00 | |||
| 20260906004522 | -17 | 0.0 | 0.0 | 0.00 | 0.00 | 0.00 | |||
| 20260906004015 | -17 | 0.0 | 0.0 | 0.00 | 0.00 | 0.00 | |||
| 20260906003522 | -17 | 0.0 | 0.0 | 0.00 | 0.00 | 0.00 | |||
| 20260906003016 | -17 | 0.0 | 0.0 | 0.00 | 0.00 | 0.00 | |||
| 20260906002522 | -17 | 0.0 | 0.0 | 0.00 | 0.00 | 0.00 | |||
| 20260906002016 | -17 | 0.0 | 0.0 | 0.00 | 0.00 | 0.00 | |||
| 20260906001523 | -17 | 0.0 | 0.0 | 0.00 | 0.00 | 0.00 | |||
| 20260906001046 | -17 | 0.0 | 0.0 | 0.00 | 0.00 | 0.00 | |||
| 20260906000523 | -17 | 0.0 | 0.0 | 0.00 | 0.00 | 0.00 | |||
| 20260906000017 | -17 | 0.0 | 0.0 | 0.00 | 0.00 | 0.00 | |||
| 20260905235523 | -17 | 0.0 | 0.0 | 0.00 | 0.00 | 0.00 | |||
| 20260905235017 | -17 | 0.0 | 0.0 | 0.00 | 0.00 | 0.00 | |||
| 20260905234524 | -17 | 0.0 | 0.0 | 0.00 | 0.00 | 0.00 | |||
| 20260905234047 | -17 | 0.0 | 0.0 | 0.00 | 0.00 | 0.00 | |||
| 20260905233524 | -17 | 0.0 | 0.0 | 0.00 | 0.00 | 0.00 | |||
| 20260905233018 | -17 | 0.0 | 0.0 | 0.00 | 0.00 | 0.00 | |||
| 20260905232554 | -17 | 0.0 | 0.0 | 0.00 | 0.00 | 0.00 | |||
| 20260905232018 | -17 | 0.0 | 0.0 | 0.00 | 0.00 | 0.00 | |||
| 20260905231524 | -17 | 0.0 | 0.0 | 0.00 | 0.00 | 0.00 | |||
| 20260905231019 | -17 | 0.0 | 0.0 | 0.00 | 0.00 | 0.00 | |||
| 20260905230525 | -17 | 0.0 | 0.0 | 0.00 | 0.00 | 0.00 | |||
| 20260905230019 | -17 | 0.0 | 0.0 | 0.00 | 0.00 | 0.00 | |||
| 20260905225525 | -17 | 0.0 | 0.0 | 0.00 | 0.00 | 0.00 | |||
| 20260905225019 | -17 | 0.0 | 0.0 | 0.00 | 0.00 | 0.00 | |||
| 20260905224555 | -17 | 0.0 | 0.0 | 0.00 | 0.00 | 0.00 | |||
| 20260905224023 | -17 | 0.0 | 0.0 | 0.00 | 0.00 | 0.00 | |||
| 20260905223517 | -17 | 0.0 | 0.0 | 0.00 | 0.00 | 0.00 | |||
| 20260905223338 | -17 | 0.0 | 0.0 | 0.00 | 0.00 | 0.00 | |||
| 20260905222617 | -17 | 0.0 | 0.0 | 0.00 | 0.00 | 0.00 | |||
| 20260905222229 | -17 | 0.0 | 0.0 | 0.00 | 0.00 | 0.00 | |||
| 20260905221518 | -17 | 0.0 | 0.0 | 0.00 | 0.00 | 0.00 | |||
| 20260905221024 | -17 | 0.0 | 0.0 | 0.00 | 0.00 | 0.00 | |||
| 20260905220518 | -17 | 0.0 | 0.0 | 0.00 | 0.00 | 0.00 | |||
| 20260905220024 | -17 | 0.0 | 0.0 | 0.00 | 0.00 | 0.00 | |||
| 20260905215518 | -17 | 0.0 | 0.0 | 0.00 | 0.00 | 0.00 | |||
| 20260905215024 | -17 | 0.0 | 0.0 | 0.00 | 0.00 | 0.00 | |||
| 20260905214519 | -17 | 0.0 | 0.0 | 0.00 | 0.00 | 0.00 | |||
| 20260905214025 | -17 | 0.0 | 0.0 | 0.00 | 0.00 | 0.00 | |||
| 20260905213519 | -17 | 0.0 | 0.0 | 0.00 | 0.00 | 0.00 | |||
| 20260905213025 | -17 | 0.0 | 0.0 | 0.00 | 0.00 | 0.00 | |||
| 20260905212520 | -17 | 0.0 | 0.0 | 0.00 | 0.00 | 0.00 | |||
| 20260905212026 | -17 | 0.0 | 0.0 | 0.00 | 0.00 | 0.00 | |||
| 20260905211520 | -17 | 0.0 | 0.0 | 0.00 | 0.00 | 0.00 | |||
| 20260905211026 | -17 | 0.0 | 0.0 | 0.00 | 0.00 | 0.00 | |||
| 20260905210520 | -17 | 0.0 | 0.0 | 0.00 | 0.00 | 0.00 | |||
| 20260905210015 | -17 | 0.0 | 0.0 | 0.00 | 0.00 | 0.00 | |||
| 20260905205551 | -17 | 0.0 | 0.0 | 0.00 | 0.00 | 0.00 | |||
| 20260905205015 | -17 | 0.0 | 0.0 | 0.00 | 0.00 | 0.00 | |||
| 20260905204522 | -17 | 0.0 | 0.0 | 0.00 | 0.00 | 0.00 | |||
| 20260905204046 | -17 | 0.0 | 0.0 | 0.00 | 0.00 | 0.00 | |||
| 20260905203536 | -17 | 0.0 | 0.0 | 0.00 | 0.00 | 0.00 | |||
| 20260905203030 | -17 | 0.0 | 0.0 | 0.00 | 0.00 | 0.00 | |||
| 20260905202524 | -17 | 0.0 | 0.0 | 0.00 | 0.00 | 0.00 | |||
| 20260905202019 | -17 | 0.0 | 0.0 | 0.00 | 0.00 | 0.00 | |||
| 20260905201524 | -17 | 0.0 | 0.0 | 0.00 | 0.00 | 0.00 | |||
| 20260905201018 | -17 | 0.0 | 0.0 | 0.00 | 0.00 | 0.00 | |||
| 20260905200525 | -17 | 0.0 | 0.0 | 0.00 | 0.00 | 0.00 | |||
| 20260905200019 | -17 | 0.0 | 0.0 | 0.00 | 0.00 | 0.00 | |||
| 20260905195525 | -17 | 0.0 | 0.0 | 0.00 | 0.00 | 0.00 | |||
| 20260905195050 | -17 | 0.0 | 0.0 | 0.00 | 0.00 | 0.00 | |||
| 20260905194556 | -17 | 0.0 | 0.0 | 0.00 | 0.00 | 0.00 | |||
| 20260905194020 | -17 | 0.0 | 0.0 | 0.00 | 0.00 | 0.00 | |||
| 20260905193527 | -17 | 0.0 | 0.0 | 0.00 | 0.00 | 0.00 | |||
| 20260905193020 | -17 | 0.0 | 0.0 | 0.00 | 0.00 | 0.00 | |||
| 20260905192527 | -17 | 0.0 | 0.0 | 0.00 | 0.00 | 0.00 | |||
| 20260905192021 | -17 | 0.0 | 0.0 | 0.00 | 0.00 | 0.00 | |||
| 20260905191515 | -17 | 0.0 | 0.0 | 0.00 | 0.00 | 0.00 | |||
| 20260905191021 | -17 | 0.0 | 0.0 | 0.00 | 0.00 | 0.00 | |||
| 20260905190516 | -17 | 0.0 | 0.0 | 0.00 | 0.00 | 0.00 | |||
| 20260905190023 | -17 | 0.0 | 0.0 | 0.00 | 0.00 | 0.00 | |||
| 20260905185517 | -17 | 0.0 | 0.0 | 0.00 | 0.00 | 0.00 | |||
| 20260905185023 | -17 | 0.0 | 0.0 | 0.00 | 0.00 | 0.00 | |||
| 20260905184517 | -17 | 0.0 | 0.0 | 0.00 | 0.00 | 0.00 | |||
| 20260905184024 | -17 | 0.0 | 0.0 | 0.00 | 0.00 | 0.00 | |||
| 20260905183518 | -17 | 0.0 | 0.0 | 0.00 | 0.00 | 0.00 | |||
| 20260905183055 | -17 | 0.0 | 0.0 | 0.00 | 0.00 | 0.00 | |||
| 20260905182519 | -17 | 0.0 | 0.0 | 0.00 | 0.00 | 0.00 | |||
| 20260905182026 | -17 | 0.0 | 0.0 | 0.00 | 0.00 | 0.00 | |||
| 20260905181520 | -17 | 0.0 | 0.0 | 0.00 | 0.00 | 0.00 | |||
| 20260905181026 | -17 | 0.0 | 0.0 | 0.00 | 0.00 | 0.00 | |||
| 20260905180520 | -17 | 0.0 | 0.0 | 0.00 | 0.00 | 0.00 | |||
| 20260905180056 | -17 | 0.0 | 0.0 | 0.00 | 0.00 | 0.00 | |||
| 20260905175521 | -17 | 0.0 | 0.0 | 0.00 | 0.00 | 0.00 | |||
| 20260905175015 | -17 | 0.0 | 0.0 | 0.00 | 0.00 | 0.00 |